Regional Weather Roundup
Issued by NWS Cleveland, OH

Home | Current Version | Previous Version | Text Only | Print | Product List | Glossary Off
Versions: 1 2 3 4 5 6 7 8 9 10 11 12 13 14 15 16 17 18 19 20 21 22 23 24 25 26 27 28 29 30 31 32 33 34 35 36 37 38 39 40 41 42 43 44 45 46 47 48 49 50

645
ASUS41 KCLE 252100
RWRCLE
OHIO REGIONAL WEATHER ROUNDUP
NATIONAL WEATHER SERVICE WILMINGTON, OH
400 PM EST SUN FEB 25 2018

NOTE: "FAIR" INDICATES FEW OR NO CLOUDS BELOW 12,000 FEET WITH NO
SIGNIFICANT WEATHER AND/OR OBSTRUCTIONS TO VISIBILITY.

OHZ001>008-015>018-024>027-034-035-043-044-252200-
   NORTHWEST OHIO

CITY           SKY/WX    TMP DP  RH WIND       PRES   REMARKS
DEFIANCE       FAIR      43  30  60 W17G24    29.98R
FINDLAY        PTSUNNY   43  31  62 W22       29.99R
TOLEDO EXPRESS FAIR      44  29  55 W25G33    29.94F
TOLEDO EXEC    FAIR      44  29  55 SW23G30   29.96S
LIMA           FAIR      43  34  70 W14G28    29.99S
$$

OHZ009>014-019>023-028>033-038-089-252200-
   NORTHEAST OHIO

CITY           SKY/WX    TMP DP  RH WIND       PRES   REMARKS
CLE-HOPKINS    PTSUNNY   46  34  62 SW16G24   29.97R
CLE-LAKEFRONT  FAIR      42  33  70 W14       29.94R
CUY CO. ARPT   PTSUNNY   45  34  65 NW14      29.94R
LORAIN-ELYRIA  FAIR      45  30  55 W22G30    29.96R
ASHTABULA      FAIR      45  35  68 W12G20    29.93R
AKRON-CANTON   PTSUNNY   50  29  44 W16G24    29.94R
WOOSTER        NOT AVBL
MANSFIELD      FAIR      46  35  65 W15G25    29.97R
YOUNGSTOWN     PTSUNNY   51  31  46 W13G26    29.91R
$$

OHZ042-051>053-060>062-070>072-077>081-252200-
  SOUTHWEST OHIO

CITY           SKY/WX    TMP DP  RH WIND       PRES   REMARKS
CINC-COVINGTON PTSUNNY   48  33  56 SW12      30.05R
CINC-LUNKEN    FAIR      49  33  54 SW12      30.07R
HAMILTON       FAIR      50  28  42 W8G17     30.06R
DAYTON         NOT AVBL
WRIGHT-PAT AFB FAIR      49  29  45 W14       30.01S
DAYTON GENERAL FAIR      48  28  46 SW14      30.02R
WILMINGTON     FAIR      47  31  53 W15       30.02R
$$

OHZ036-037-039>041-045>050-054>059-063>069-073>076-082>088-252200-
  CENTRAL AND SOUTHEAST OHIO

CITY           SKY/WX    TMP DP  RH WIND       PRES   REMARKS
COLUMBUS       PTSUNNY   50  35  56 W14G21    30.01R
OSU AIRPORT    FAIR      49  37  63 SW13      30.00R
BOLTON FIELD   SUNNY     48  36  61 W15G21    30.02R
RICKENBACK AFB NOT AVBL
NEWARK         FAIR      51  36  56 W14       29.99R
MARION         FAIR      45  32  60 W13       29.99R
LANCASTER      FAIR      50  36  58 W13G22    30.01S
ZANESVILLE     FAIR      51  39  63 W9        29.99R
NEW PHILLY     FAIR      52  31  44 SW8G20    29.97R
$$




USA.gov is the U.S. government's official web portal to all federal, state and local government web resources and services.